Milwaukee Timmerman, WI

7:54 AM CDT on April 29, 2017 (GMT -0500)
Timmerman

Weather History for KMWC - August, 2014

Change the Weather History Date:

Sunday, August 10, 2014

  Actual Average Record
Temperature  
Mean Temperature 68 °F -  
Max Temperature 77 °F 81 °F 91 °F (1949)
Min Temperature 60 °F 62 °F 50 °F (1962)
Cooling Degree Days 4    
Growing Degree Days 18 (Base 50)    
Moisture  
Dew Point 57 °F    
Average Humidity 71    
Maximum Humidity 88    
Minimum Humidity 41    
Precipitation  
Precipitation 0.00 in - - ()
Sea Level Pressure  
Sea Level Pressure 30.07 in    
Wind  
Wind Speed 2 mph (NE)    
Max Wind Speed 10 mph    
Max Gust Speed -    
Visibility 10 miles    
Events      
Averages and records for this station are not official NWS values.
T = Trace of Precipitation, MM = Missing Value Source: NWS Daily Summary

Daily Weather History Graph

Daily Weather History Graph

Search for Another Location

Airport or City:

Trip Planner

Search our weather history database for the weather conditions in past years. The results will help you decide how hot, cold, wet, or windy it might be!

Date:

Astronomy

Aug. 10, 2014 Rise Set
Actual Time 5:52 AM CDT 8:01 PM CDT
Civil Twilight 5:21 AM CDT 8:32 PM CDT
Nautical Twilight 4:42 AM CDT 9:11 PM CDT
Astronomical Twilight 3:59 AM CDT 9:53 PM CDT
Moon 7:46 PM CDT (8/10) 5:45 AM CDT (8/10)
Length of Visible Light 15h 11m
Length of Day
14h 09m
Full, 100% of the Moon is Illuminated
Aug 10
Full
Aug 10
Full
Aug 17
Last Quarter
Aug 25
New
Sep 2
First Quarter

Hourly Weather History & Observations

Time (CDT) Temp. Dew Point Humidity Pressure Visibility Wind Dir Wind Speed Gust Speed Precip Events Conditions
12:15 AM 64.4 °F 55.4 °F 73% 30.11 in 10.0 mi NE 3.5 mph - N/A   Clear
12:35 AM 62.6 °F 55.4 °F 77% 30.10 in 10.0 mi Calm Calm - N/A   Clear
12:55 AM 60.8 °F 55.4 °F 82% 30.10 in 10.0 mi Calm Calm - N/A   Clear
1:15 AM 60.8 °F 55.4 °F 82% 30.10 in 10.0 mi Calm Calm - N/A   Clear
1:35 AM 62.6 °F 59.0 °F 88% 30.09 in 10.0 mi Calm Calm - N/A   Clear
1:55 AM 62.6 °F 59.0 °F 88% 30.09 in 10.0 mi Calm Calm - N/A   Clear
2:15 AM 60.8 °F 55.4 °F 82% 30.09 in 10.0 mi Calm Calm - N/A   Clear
2:35 AM 62.6 °F 59.0 °F 88% 30.09 in 10.0 mi Calm Calm - N/A   Scattered Clouds
2:55 AM 62.6 °F 59.0 °F 88% 30.09 in 10.0 mi NE 3.5 mph - N/A   Scattered Clouds
3:15 AM 62.6 °F 59.0 °F 88% 30.10 in 10.0 mi Calm Calm - N/A   Scattered Clouds
3:35 AM 60.8 °F 57.2 °F 88% 30.09 in 10.0 mi Calm Calm - N/A   Mostly Cloudy
3:55 AM 60.8 °F 57.2 °F 88% 30.10 in 10.0 mi Calm Calm - N/A   Overcast
4:15 AM 62.6 °F 57.2 °F 82% 30.09 in 10.0 mi Calm Calm - N/A   Overcast
4:35 AM 62.6 °F 59.0 °F 88% 30.09 in 10.0 mi Calm Calm - N/A   Overcast
4:55 AM 64.4 °F 59.0 °F 83% 30.09 in 10.0 mi Calm Calm - N/A   Overcast
5:15 AM 64.4 °F 59.0 °F 83% 30.09 in 10.0 mi Calm Calm - N/A   Mostly Cloudy
5:35 AM 64.4 °F 59.0 °F 83% 30.09 in 10.0 mi ENE 3.5 mph - N/A   Scattered Clouds
5:55 AM 64.4 °F 59.0 °F 83% 30.10 in 10.0 mi Calm Calm - N/A   Clear
6:15 AM 64.4 °F 60.8 °F 88% 30.09 in 10.0 mi NE 4.6 mph - N/A   Clear
6:35 AM 64.4 °F 60.8 °F 88% 30.10 in 10.0 mi Calm Calm - N/A   Clear
6:45 AM 66.2 °F 60.8 °F 83% 30.10 in 10.0 mi Calm Calm - N/A   Clear
7:45 AM 66.2 °F 62.6 °F 88% 30.11 in 10.0 mi Calm Calm - N/A   Mostly Cloudy
8:45 AM 71.6 °F 60.8 °F 69% 30.11 in 10.0 mi Calm Calm - N/A   Scattered Clouds
9:45 AM 71.6 °F 59.0 °F 64% 30.10 in 10.0 mi NE 5.8 mph - N/A   Mostly Cloudy
10:45 AM 71.6 °F 59.0 °F 64% 30.11 in 10.0 mi NNE 5.8 mph - N/A   Clear
11:45 AM 75.2 °F 55.4 °F 50% 30.10 in 10.0 mi ENE 8.1 mph - N/A   Clear
12:45 PM 75.2 °F 55.4 °F 50% 30.09 in 10.0 mi East 6.9 mph - N/A   Clear
1:45 PM 75.2 °F 53.6 °F 47% 30.08 in 10.0 mi ENE 5.8 mph - N/A   Clear
2:45 PM 77.0 °F 51.8 °F 41% 30.07 in 10.0 mi ENE 10.4 mph - N/A   Clear
3:45 PM 75.2 °F 50.0 °F 41% 30.06 in 10.0 mi ENE 9.2 mph - N/A   Mostly Cloudy
4:45 PM 75.2 °F 50.0 °F 41% 30.04 in 10.0 mi East 4.6 mph - N/A   Scattered Clouds
5:45 PM 73.4 °F 50.0 °F 44% 30.03 in 10.0 mi ENE 4.6 mph - N/A   Clear
6:45 PM 73.4 °F 50.0 °F 44% 30.02 in 10.0 mi NNE 4.6 mph - N/A   Clear
7:45 PM 73.4 °F 50.0 °F 44% 30.01 in 10.0 mi NNE 4.6 mph - N/A   Clear
8:45 PM 69.8 °F 57.2 °F 64% 30.01 in 10.0 mi NNE 4.6 mph - N/A   Clear
9:15 PM 69.8 °F 55.4 °F 60% 30.02 in 10.0 mi NE 3.5 mph - N/A   Clear
9:35 PM 69.8 °F 55.4 °F 60% 30.02 in 10.0 mi NNE 4.6 mph - N/A   Scattered Clouds
9:55 PM 69.8 °F 55.4 °F 60% 30.02 in 10.0 mi NNE 4.6 mph - N/A   Mostly Cloudy
10:15 PM 69.8 °F 55.4 °F 60% 30.02 in 10.0 mi NNE 5.8 mph - N/A   Overcast
10:55 PM 68.0 °F 57.2 °F 68% 30.01 in 10.0 mi NNE 3.5 mph - N/A   Overcast
11:15 PM 68.0 °F 57.2 °F 68% 30.01 in 10.0 mi NNE 3.5 mph - N/A   Overcast
11:35 PM 68.0 °F 57.2 °F 68% 30.01 in 10.0 mi East 3.5 mph - N/A   Overcast
11:55 PM 68.0 °F 59.0 °F 73% 30.02 in 10.0 mi East 3.5 mph - N/A   Light Drizzle